FW3173 Weather Reports


time (UTC)temp
C
wind
direction
speed
KPH
gust
KPH
rain 1hr
cm
rain 24hr
cm
rain mn
cm
humidity
%
barometer
mb
20260507220040 11 160 6.4 19.3 0.00 2.03 2.03 98 1002.7
20260507214539 11 142 6.4 16.1 0.00 2.03 2.03 98 1002.6
20260507213036 11 188 3.2 16.1 0.00 2.03 2.03 97 1002.5
20260507211546 12 211 3.2 6.4 0.00 2.03 2.03 98 1002.6
20260507210052 13 164 3.2 12.9 0.00 2.03 2.03 99 1002.2
20260507204542 12 121 4.8 9.7 0.03 2.03 2.03 99 1002.1
20260507203034 12 142 4.8 8.0 0.05 2.03 2.03 99 1002.1
20260507201533 12 173 4.8 17.7 0.08 2.03 2.03 98 1002.1
20260507200034 12 178 8.0 24.1 0.25 2.03 2.03 99 1001.6
20260507194542 12 105 6.4 16.1 0.38 2.03 2.03 99 1001.7
20260507193028 12 101 6.4 14.5 0.43 2.01 2.01 99 1002.3
20260507191526 11 162 6.4 16.1 0.51 1.96 1.96 99 1003.0
20260507190037 11 137 9.7 25.7 0.46 1.78 1.78 99 1003.7
20260507184526 11 149 9.7 20.9 0.48 1.65 1.65 98 1004.1
20260507183018 11 179 9.7 24.1 0.66 1.57 1.57 98 1004.7
20260507181517 11 129 11.3 22.5 0.91 1.42 1.42 98 1005.1
20260507180019 11 167 12.9 24.1 1.17 1.32 1.32 97 1005.0
20260507174514 11 150 11.3 24.1 1.14 1.14 1.14 97 1005.4
20260507173031 11 176 12.9 27.4 0.89 0.89 0.89 96 1005.6
20260507171510 12 204 9.7 24.1 0.51 0.51 0.51 95 1005.6
20260507170016 13 194 12.9 25.7 0.10 0.10 0.10 93 1004.8
20260507164519 13 136 16.1 33.8 0.00 0.00 0.00 90 1004.7
20260507163005 15 176 16.1 35.4 0.00 0.00 0.00 88 1004.7
20260507161503 15 133 19.3 43.5 0.00 0.00 0.00 87 1005.2
20260507160002 15 131 17.7 30.6 0.00 0.00 0.00 87 1005.3
20260507154601 15 134 22.5 45.1 0.00 0.00 0.00 87 1005.7
20260507153059 15 138 16.1 45.1 0.00 0.00 0.00 87 1006.0
20260507151557 15 130 22.5 48.3 0.00 0.00 0.00 87 1006.1
20260507150053 15 212 16.1 43.5 0.00 0.00 0.00 87 1007.0
20260507144553 15 222 20.9 46.7 0.00 0.00 0.00 86 1007.3
20260507143051 15 208 19.3 45.1 0.00 0.00 0.00 84 1007.3
20260507141550 15 150 27.4 46.7 0.00 0.00 0.00 84 1007.1
20260507140047 15 151 22.5 43.5 0.00 0.00 0.00 85 1007.4
20260507134548 15 180 25.7 48.3 0.00 0.00 0.00 86 1007.5
20260507133048 15 173 19.3 57.9 0.00 0.00 0.00 88 1007.9
20260507131541 15 56 16.1 43.5 0.00 0.00 0.00 90 1008.2
20260507130042 15 127 20.9 43.5 0.00 0.00 0.00 89 1008.6
20260507124545 14 148 19.3 41.8 0.00 0.00 0.00 89 1008.6
20260507123041 14 183 16.1 45.1 0.00 0.00 0.00 88 1008.7
20260507121536 14 177 17.7 46.7 0.00 0.00 0.00 88 1008.7
20260507120034 15 176 14.5 48.3 0.00 0.00 0.00 88 1008.8
20260507114554 15 169 17.7 38.6 0.00 0.00 0.00 88 1008.6
20260507113055 15 188 17.7 32.2 0.00 0.00 0.00 90 1008.9
20260507111536 14 171 16.1 27.4 0.00 0.00 0.00 92 1008.9
20260507110023 13 142 12.9 37.0 0.00 0.00 0.00 92 1009.4
20260507104529 13 147 9.7 25.7 0.00 0.00 0.00 92 1009.5
20260507103022 13 238 12.9 29.0 0.00 0.00 0.00 92 1009.5
20260507101520 13 142 12.9 29.0 0.00 0.00 0.00 93 1009.6
20260507100015 13 139 14.5 27.4 0.00 0.00 0.00 93 1010.2
20260507094516 13 103 14.5 35.4 0.00 0.00 0.00 93 1010.3
20260507093012 13 166 16.1 30.6 0.00 0.00 0.00 94 1010.7
20260507091510 13 164 9.7 24.1 0.00 0.00 0.00 95 1010.8
20260507090009 12 185 12.9 30.6 0.00 0.00 0.00 96 1010.6
20260507084507 12 150 12.9 27.4 0.00 0.00 0.00 95 1011.3
20260507083108 12 143 17.7 40.2 0.00 0.00 0.00 94 1011.7
20260507081507 13 178 17.7 37.0 0.00 0.00 0.00 91 1011.3
20260507080003 13 164 12.9 29.0 0.00 0.00 0.00 90 1011.3
20260507074502 13 183 12.9 35.4 0.00 0.00 0.00 90 1011.3
20260507073103 13 137 12.9 25.7 0.00 0.00 0.00 91 1011.5
20260507071556 12 152 14.5 32.2 0.00 0.00 0.00 90 1012.1
20260507070054 12 181 14.5 27.4 0.00 0.00 0.00 89 1012.8
20260507064553 12 188 9.7 30.6 0.00 0.00 0.00 89 1013.1
20260507063049 12 166 11.3 20.9 0.00 0.00 0.00 90 1013.4
20260507061548 12 152 8.0 17.7 0.00 0.00 0.00 91 1013.2
20260507060056 11 139 4.8 16.1 0.00 0.00 0.00 91 1013.3
20260507054545 11 171 4.8 12.9 0.00 0.00 0.00 90 1013.3
20260507053042 11 78 4.8 12.9 0.00 0.00 0.00 88 1013.4
20260507051540 11 117 3.2 12.9 0.00 0.00 0.00 88 1014.0
20260507050036 11 142 4.8 12.9 0.00 0.00 0.00 88 1014.6
20260507044534 11 171 4.8 14.5 0.00 0.00 0.00 88 1014.9
20260507043033 11 127 3.2 12.9 0.00 0.00 0.00 88 1015.3
20260507041529 11 144 4.8 12.9 0.00 0.00 0.00 88 1015.7
20260507040025 11 144 4.8 9.7 0.00 0.00 0.00 88 1016.0
20260507034526 11 128 3.2 11.3 0.00 0.00 0.00 86 1016.4
20260507033016 12 148 4.8 11.3 0.00 0.00 0.00 86 1016.8
20260507031517 12 152 4.8 14.5 0.00 0.00 0.00 86 1017.0
20260507030011 12 177 4.8 19.3 0.00 0.00 0.00 86 1017.2
20260507024515 12 173 4.8 14.5 0.00 0.00 0.00 86 1017.4
20260507023010 12 137 6.4 12.9 0.00 0.00 0.00 85 1017.5
20260507021510 12 161 6.4 16.1 0.00 0.00 0.00 85 1017.6
20260507020109 12 127 4.8 16.1 0.00 0.00 0.00 85 1017.7
20260507014507 12 149 6.4 22.5 0.00 0.00 0.00 85 1017.8
20260507013005 12 133 8.0 16.1 0.00 0.00 0.00 85 1018.0
20260507011509 12 174 6.4 17.7 0.00 0.00 0.00 85 1017.9
20260507010005 12 154 11.3 17.7 0.00 0.00 0.00 85 1018.1
20260507004503 12 198 8.0 17.7 0.00 0.00 0.00 84 1018.2
20260507003003 13 167 9.7 25.7 0.00 0.00 0.00 83 1018.3
20260507001505 13 148 9.7 24.1 0.00 0.00 0.00 82 1018.2
20260506234603 13 171 6.4 24.1 0.00 0.00 0.00 81 1018.1
20260506233101 14 175 8.0 22.5 0.00 0.00 0.00 80 1017.8
20260506231606 14 188 11.3 22.5 0.00 0.00 0.00 80 1017.6
20260506230112 15 195 14.5 27.4 0.00 0.00 0.00 79 1017.5
20260506224556 15 182 11.3 25.7 0.00 0.00 0.00 78 1017.3
20260506223057 15 162 16.1 25.7 0.00 0.00 0.00 78 1017.0
20260506221606 15 210 9.7 37.0 0.00 0.00 0.00 77 1016.9